Tacoma, WA

11:26 AM PDT on April 23, 2018 (GMT -0700)
McChord Air Force Base

Weather History for KTCM - July, 2013

Change the Weather History Date:

Wednesday, July 10, 2013

  Actual Average Record
Temperature  
Mean Temperature 64 °F -  
Max Temperature 74 °F 72 °F 93 °F (2002)
Min Temperature 55 °F 51 °F 45 °F (1960)
Degree Days  
Heating Degree Days 1    
Growing Degree Days 14 (Base 50)    
Moisture  
Dew Point 52 °F    
Average Humidity 71    
Maximum Humidity 88    
Minimum Humidity 44    
Precipitation  
Precipitation 0.00 in - - ()
Sea Level Pressure  
Sea Level Pressure 30.06 in    
Wind  
Wind Speed 6 mph (West)    
Max Wind Speed 10 mph    
Max Gust Speed -    
Visibility 10 miles    
Events      
Averages and records for this station are not official NWS values.
T = Trace of Precipitation, MM = Missing Value Source: NWS Daily Summary

Daily Weather History Graph

Daily Weather History Graph

Search for Another Location

Airport or City:

Astronomy

Jul. 10, 2013 Rise Set
Actual Time 5:25 AM PDT 9:05 PM PDT
Civil Twilight 4:46 AM PDT 9:43 PM PDT
Nautical Twilight 3:54 AM PDT 10:35 PM PDT
Astronomical Twilight 2:41 AM PDT 11:47 PM PDT
Moon 8:04 AM PDT (7/10) 10:02 PM PDT (7/10)
Length of Visible Light 16h 57m
Length of Day
15h 39m
Waxing Crescent, 6% of the Moon is Illuminated
Jul 10
Waxing Crescent
Jul 15
First Quarter
Jul 22
Full
Jul 29
Last Quarter
Aug 6
New

Hourly Weather History & Observations

Time (PDT) Temp. Dew Point Humidity Pressure Visibility Wind Dir Wind Speed Gust Speed Precip Events Conditions
12:58 AM 62.8 °F 54.3 °F 74% 30.06 in 10.0 mi WNW 4.6 mph - N/A   Clear
1:58 AM 60.4 °F 53.6 °F 78% 30.06 in 10.0 mi WNW 3.5 mph - N/A   Clear
2:58 AM 60.8 °F 53.6 °F 77% 30.06 in 10.0 mi WNW 4.6 mph - N/A   Clear
3:58 AM 60.8 °F 53.6 °F 77% 30.06 in 10.0 mi WNW 4.6 mph - N/A   Clear
4:58 AM 60.8 °F 53.6 °F 77% 30.06 in 10.0 mi WNW 4.6 mph - N/A   Clear
5:58 AM - - N/A% 30.06 in - WSW 5.8 mph - N/A   Unknown
6:37 AM 55.4 °F 51.8 °F 88% 30.07 in 10.0 mi Variable 5.8 mph - N/A   Scattered Clouds
6:43 AM 55.4 °F 51.8 °F 88% 30.07 in 10.0 mi WSW 6.9 mph - N/A   Mostly Cloudy
6:48 AM 55.4 °F 51.8 °F 88% 30.07 in 10.0 mi West 4.6 mph - N/A   Mostly Cloudy
6:58 AM 55.8 °F 51.3 °F 85% 30.08 in 10.0 mi Variable 5.8 mph - N/A   Overcast
7:58 AM 55.4 °F 51.8 °F 88% 30.10 in 10.0 mi SW 8.1 mph - N/A   Overcast
8:18 AM 55.4 °F 51.8 °F 88% 30.09 in 10.0 mi WSW 6.9 mph - N/A   Overcast
8:58 AM 56.7 °F 51.8 °F 84% 30.10 in 10.0 mi SW 8.1 mph - N/A   Overcast
9:23 AM 57.2 °F 51.8 °F 82% 30.09 in 10.0 mi SW 9.2 mph - N/A   Overcast
9:58 AM 57.4 °F 51.1 °F 79% 30.10 in 10.0 mi SW 5.8 mph - N/A   Overcast
10:58 AM 59.4 °F 51.6 °F 76% 30.10 in 10.0 mi SW 8.1 mph - N/A   Overcast
11:03 AM 59.0 °F 51.8 °F 77% 30.09 in 10.0 mi Variable 6.9 mph - N/A   Overcast
11:58 AM 60.8 °F 52.0 °F 73% 30.10 in 10.0 mi SW 6.9 mph - N/A   Overcast
12:38 PM 62.6 °F 51.8 °F 68% 30.08 in 10.0 mi WNW 6.9 mph - N/A   Overcast
12:58 PM 64.2 °F 53.1 °F 67% 30.08 in 10.0 mi Variable 3.5 mph - N/A   Mostly Cloudy
1:03 PM 64.4 °F 53.6 °F 68% 30.07 in 10.0 mi North 5.8 mph - N/A   Scattered Clouds
1:58 PM 67.6 °F 54.0 °F 61% 30.07 in 10.0 mi NW 8.1 mph - N/A   Clear
2:58 PM 70.7 °F 54.0 °F 55% 30.05 in 10.0 mi NW 8.1 mph - N/A   Clear
3:58 PM 72.3 °F 52.3 °F 49% 30.03 in 10.0 mi WNW 8.1 mph - N/A   Clear
4:58 PM 73.8 °F 50.7 °F 44% 30.01 in 10.0 mi Variable 4.6 mph - N/A   Clear
5:58 PM 73.9 °F 51.8 °F 46% 29.99 in 10.0 mi NNW 10.4 mph - N/A   Clear
6:58 PM 70.0 °F 52.3 °F 53% 29.99 in 10.0 mi WNW 8.1 mph - N/A   Clear
7:58 PM 66.9 °F 50.5 °F 56% 29.99 in 10.0 mi WNW 10.4 mph - N/A   Clear
8:58 PM 63.5 °F 48.7 °F 59% 29.99 in 10.0 mi NW 2.3 mph - N/A   Clear
9:58 PM 61.9 °F 48.2 °F 61% 30.00 in 10.0 mi SW 6.9 mph - N/A   Clear
10:58 PM 58.1 °F 48.0 °F 69% 30.02 in 10.0 mi SW 8.1 mph - N/A   Clear
11:58 PM 55.4 °F 47.3 °F 74% 30.03 in 10.0 mi SSW 6.9 mph - N/A   Clear